Latest Conditions
At L.F.Wade Int. Airport
Recorded at 8:55 am
Showers
Temp.: 
20°C/68°F
Humidity: 
79%
Wind: 
NNE 5KT
or 6mph
UV Index: 
2
Island Observations
Observations
Monday, May 02, 2016

Observations are in local time and taken at least once an hour, or upon the start and end of specified events such as showers and thunderstorms.

Time Sky / Weather Wind Speed/Gusts Temp. R.H. Pressure
     knots (mph)  °C (°F)  %  mb / "Hg
 08:55 Mostly Cloudy Showers NNE 5/0 (6/0) 20(68) 79 1022 / 30.18
 08:35 Mostly Cloudy Showers NE 4/0 (5/0) 20(69) 76 1022 / 30.17
 07:55 Few Clouds  NE 3/0 (3/0) 20(69) 80 1021 / 30.16
 06:55 Few Clouds  E 5/0 (6/0) 19(66) 81 1021 / 30.15
 05:55 Mostly Cloudy  NE 4/0 (5/0) 19(66) 82 1021 / 30.14
 04:55 Mostly Cloudy  ENE 4/0 (5/0) 19(66) 81 1020 / 30.13
 03:55 Mostly Cloudy  E 5/0 (6/0) 19(66) 79 1020 / 30.13
 02:55 Mostly Cloudy  E 3/0 (3/0) 19(66) 81 1021 / 30.14
 01:55 Mostly Cloudy  NE 3/0 (3/0) 20(67) 79 1021 / 30.15
 00:55 Mostly Cloudy  NNE 4/0 (5/0) 20(67) 78 1021 / 30.16
 23:55 Mostly Cloudy  NE 6/0 (7/0) 20(68) 79 1021 / 30.16
 22:55 Mostly Cloudy  NNE 7/0 (8/0) 20(68) 77 1021 / 30.16
 21:55 Mostly Cloudy  N 7/0 (8/0) 20(69) 76 1021 / 30.16
 20:55 Mostly Cloudy  N 6/0 (7/0) 20(69) 74 1021 / 30.15
 19:55 Mostly Cloudy  NNE 8/0 (9/0) 20(69) 73 1020 / 30.12
 18:55 Mostly Cloudy  N 8/0 (9/0) 21(70) 70 1020 / 30.11
 17:55 Overcast  N 9/0 (10/0) 22(71) 68 1020 / 30.11
 16:55 Overcast  N 10/0 (12/0) 22(71) 69 1019 / 30.10
 15:55 Mostly Cloudy  N 10/0 (12/0) 22(71) 70 1019 / 30.10
 14:55 Mostly Cloudy  NNE 10/0 (12/0) 22(71) 70 1020 / 30.11
 13:55 Mostly Cloudy  NNE 10/0 (12/0) 22(72) 70 1020 / 30.11
 12:55 Mostly Cloudy  NNE 11/0 (13/0) 22(72) 72 1019 / 30.10
 12:15 Mostly Cloudy  NNE 12/0 (14/0) 22(72) 73 1019 / 30.10
 11:55 Mostly Cloudy  NNE 12/0 (14/0) 22(72) 72 1019 / 30.10
Observations from our AWOS sites are available here (password and username are both 'guest').